047  
ASHW40 PHFO 201343  
RWRHI  
 
WEATHER ROUNDUP FOR HAWAII  
NATIONAL WEATHER SERVICE HONOLULU HI  
300 AM HST SUN AUG 20 2017  
 
THIS IS AN AUTOMATED REPORT THAT HAS NOT BEEN QUALITY CONTROLLED.  
 
NOTE..."FAIR" INDICATES FEW OR NO CLOUDS BELOW 12,000 FEET WITH NO  
SIGNIFICANT WEATHER AND/OR S TO VISIBILITY
.  
 
* - THESE SITES REPORT LIMITED FIELDS  
# - BUOY DATA PROVIDED BY PACIFIC ISLANDS OCEAN OBSERVING SYSTEM.  
 
HIZ001>004-201400-  
KAUAI-NIIHAU-  
 
CITY SKY/WX TMP DP RH WIND PRES REMARKS
 
LIHUE APT PTCLDY 80 73 79 NE12 29.98F  
PORT ALLEN* N/A 77 N/A N/A NE12 N/A  
POIPU* N/A 79 N/A N/A NE7G14 N/A  
PRINCEVILLE* N/A 73 N/A N/A S2 N/A  
KOKOLE POINT* NOT AVBL  
MOLOAA DAIRY* N/A 75 72 88 E3G12 N/A  
WAIMEA HTS* N/A 75 68 78 NW2 N/A  
PUU OPAE* N/A 68 61 77 E3 N/A  
PUU LUA* NOT AVBL  
MAKAHA RIDGE* N/A 70 64 83 S2 N/A  

 
 
HIZ005>011-201400-  
OAHU-  
 
CITY SKY/WX TMP DP RH WIND PRES REMARKS
 
HONOLULU PTCLDY 74 68 81 NE13 29.94F  
KALAELOA CLEAR 76 68 76 NE6 29.96F  
KANEOHE MCB NOT AVBL  
WHEELER FIELD FAIR 71 67 88 W5 29.96F  
BELLOWS* N/A N/A N/A N/A NE14 N/A  
KAHUKU* N/A N/A N/A N/A NE8G14 N/A  
WHEELER* N/A N/A N/A N/A NW2 N/A  
WAIANAE HARBOR N/A N/A N/A N/A E2 N/A  
DILLINGHAM* N/A 90 86 89 W1 N/A HX 119  
KAHUKU TRN* N/A 75 70 83 W7G16 N/A  
KAWAILOA* N/A 72 68 88 E7G15 N/A  
KII* N/A 79 72 78 E14G20 N/A  
MAKUA RANGE* N/A 81 68 65 NW6G12 N/A  
OAHU FOREST NW N/A 70 64 83 E14G26 N/A  
SCHOFIELD BRK* N/A 72 68 88 MISG N/A  
SCHOFIELD S* NOT AVBL  
WAIANAE VLY* N/A 88 77 70 N7G17 N/A HX 100  
KUAOKALA* N/A 73 66 78 NE13G18 N/A  
HONOULIUULI* NOT AVBL  
MOKUOLOE IS* NOT AVBL  
PALEHUA* N/A 66 64 94 NE12G21 N/A  
WAIAWA PHB* NOT AVBL  

 
 
HIZ012>013-201400-  
MOLOKAI-  
 
CITY SKY/WX TMP DP RH WIND PRES REMARKS
 
MOLOKAI AIRPT CLEAR 75 71 87 NE7 29.96F  
KALAUPAPA NOT AVBL  
MAKAPULAPAI* N/A 79 72 78 E16G24 N/A  
MOLOKAI 1* N/A 64 63 94 CALM N/A  
PUU ALII* N/A 63 63 100 NE3G13 N/A  

 
 
HIZ016-201400-  
KAHOOLAWE-  
 
CITY SKY/WX TMP DP RH WIND PRES REMARKS
 
KAHOOLAWE* NOT AVBL  
HAKIOAWA* N/A 71 69 93 MISG 30.36F  
HONOKANAIA* N/A 77 67 71 NE7G15 29.89F  
KANELOA* N/A 73 68 83 NE12G22 30.01F  
KEALIALALO* NOT AVBL  
LUA MAKIKA* NOT AVBL  

 
 
HIZ014>015-201400-  
LANAI-  
 
CITY SKY/WX TMP DP RH WIND PRES REMARKS
 
LANAI CITY FAIR 70 67 90 NE7 30.01F  
LANAI 1* N/A 72 N/A N/A NE14 N/A  

 
 
HIZ017>028-201400-  
MAUI-  
 
CITY SKY/WX TMP DP RH WIND PRES REMARKS
 
KAHULUI CLEAR 71 66 84 SE7 29.93F  
KAPALUA-W MAUI NOT AVBL  
HANA AIRPORT MOCLDY 73 72 94 CALM 29.98S  
HANA* NOT AVBL  
HALEAKALA SUMM N/A 43 27 52 E20 N/A  
MAALAEA BAY* N/A 77 N/A N/A N10G16 N/A  
HALEAKALA* NOT AVBL  
KAUPO GAP* NOT AVBL  
KULA 1* N/A N/A N/A N/A E10G26 N/A  

 
 
HIZ023>026-201400-  
BIG ISLAND OF HAWAII COAST AND LOWER SLOPES-  
 
CITY SKY/WX TMP DP RH WIND PRES REMARKS
 
KAILUA KONA NOT AVBL  
HILO CLOUDY 74 64 71 SW6 29.94F  
HONOKAA* N/A 66 N/A N/A VRB1 N/A  
KAWAIHAE MWT* N/A 77 N/A N/A NE6 N/A  
KAWAIHAE* N/A 77 N/A N/A NE3 29.92S  
SOUTH POINT* N/A 72 N/A N/A NW10 N/A  
UPOLU AIRPORT* NOT AVBL  
KAMUELA* N/A 59 57 94 E7 30.05S  
HAKALAU* N/A 52 34 50 SW6G12 N/A  
KALOKO-HONOKO* N/A 79 73 83 E3 N/A  
PALI 2* N/A 68 55 64 S10 N/A  
KEALAKOMO* N/A 81 64 57 VRB13G21 N/A  
KAUPULEHU* N/A 73 64 73 SE6 N/A  
KAPAPALA* N/A 60 56 86 VRB5 N/A  
LOWER KAHUKU* N/A 63 54 72 N3G12 N/A  
PUHE CS* N/A N/A N/A N/A NE3 N/A  
PUHO CS* N/A 75 32 20 NE2 N/A  
PTA KEAMUKU* N/A N/A N/A N/A S8 N/A  
WAIKOLOA* N/A N/A N/A N/A E10 N/A  

 
 
HIZ027>028-201400-  
BIG ISLAND OF HAWAII INTERIOR AND SUMMMITS-  
 
CITY SKY/WX TMP DP RH WIND PRES REMARKS
 
BRADSHAW FIELD CLOUDY 62 27 26 SE12 30.29S  
MK VISITOR CEN N/A 46 39 76 E8 N/A  
MAUNA KEA* N/A 32 0 25 E7 N/A WCI 26  
MAUNA LOA* N/A 45 -2 14 MISG N/A  
MAUNA LOA 1* NOT AVBL  
PTA KIPUKA* N/A 72 68 88 NW3 N/A  
PTA RANGE 17* NOT AVBL  
PTA WEST* N/A 55 55 100 E3G9 N/A  
NENE CABIN* N/A N/A N/A N/A NE8 N/A  
AHUMOA* N/A 55 36 49 E7 N/A  
PTA PORTABLE* NOT AVBL  
PUU MALI* N/A N/A N/A N/A S7 N/A  

 
 
HIC003-201400-  
NORTHWEST ISLANDS-  
 
CITY SKY/WX TMP DP RH WIND PRES REMARKS
 
MIDWAY ISLAND PTCLDY 79 73 83 E13 30.14F  
MIDWAY NOS* N/A 81 N/A N/A MISG 30.12F  
FRENCH FRIGATE NOT AVBL  

 
 
PHZ110>124-180-201400-  
BUOY REPORTS  
 
STATION/POSITION TIME TEMP WIND PRES WAVE SWELL
 
AIR SEA DIR/SP/G HT/PER HT/DIR  
(UTC) (F) (DEG/KT/KT) (MB) (FT/S) (FT/D)  
BUOY 51001 1320 80 81 80/ 14/ 16 1015.7  
BUOY 51101 1250 80 81 70/ 14/ 16 1016.1F 5/ 5 3/ 70  
BUOY 51100 NOT AVBL  
BUOY 51002 1320 78 80 60/ 16/ 19 1011.6  
BUOY 51003 1250 80 82 70/ 14/ 16 1012.9F 4/ 8 3/ 90  
BUOY 51004 1250 80 70/ 8/ 10 1011.7F 5/ 8 5/ 70  
WAIMEA BAY# 1302 78 N/A 3/ 6  
MOKAPU POINT# 1304 80 N/A 4/ 8 2/130  
LANAI# NOT AVBL  
BARBERS PT 2# NOT AVBL  
PAUWELA# 1309 80 N/A 4/ 8  
HILO# 1327 80 N/A 4/ 7 2/120  
KANEOHE BAY# NOT AVBL  
KANEOHE BAY 2# NOT AVBL  
HANALEI# 1322 81 N/A 4/ 6  
KAHULUI HARBOR 1312 76 81 30/ 3/ 5 1013.7  
HONOLULU HARBOR 1312 79 81 40/ 4/ 6 1014.7  
PEARL HARBOR# 1230 81 N/A 3/ 5 2/160  
KILO NALU NOT AVBL  
HILO HARBOR 1312 75 82 180/ 2/ 4 1013.6  
MOKUOLOE 1236 79 82 70/ 7/ 10 1014.7F  
NAWILIWILI 1312 78 83 60/ 8/ 9 1014.6  
WHOTS BUOY NOT AVBL  
BUOY 51028 NOT AVBL  

 
   
.....................KEY.....................................
 
 
SKY/WX - SKY CONDITIONS/PRESENT WEATHER  
TMP - TEMPERATURE IN FAHRENHEIT  
DWPT - DEWPOINT IN FAHRENHEIT  
RH - RELATIVE HUMIDITY IN PERCENT  
WIND - DIRECTION AND SPEED /MPH FOR ISLANDS...KTS FOR BUOYS/  
PRES - MEAN SEA LEVEL PRESSURE IN INCHES OF HG  
VSB - VISIBILITY IN MILES  
HX - HEAT INDEX  
WCI - WIND CHILL INDEX  
VRB - VARIABLE WIND DIRECTION  
N/A - NOT AVAILABLE  
 
 
CLICK HERE TO GO TO PREVIOUS BULLETINS.

The Nexlab HI Page Main Text Page